Home   Weather   Cartagena   Past weeks
Flag for Colombia

Past Weather in Cartagena, Colombia — Yesterday and Last 2 Weeks

Now
79 °F

Passing clouds.


Feels Like: 83 °F
Forecast: 86 / 77 °F
Wind: 5 mph from Northeast

Location: Cartagena / Rafael Nunez

Current Time: Oct 20, 2019 at 2:07:20 am

Latest Report: Oct 20, 2019 at 1:00 am


Visibility: N/A

Pressure: 29.87 "Hg

Humidity: 94%

Dew Point: 77 °F

Location of CartagenaLocation

Past Weather in Cartagena — Graph

°F

Cartagena Temperature Yesterday

Maximum temperature yesterday: 88 °F (at 1:00 pm)
Minimum temperature yesterday: 73 °F (at 2:00 am)
Average temperature yesterday: 80 °F

High & Low Weather Summary for the Past Weeks

 TemperatureHumidityPressure
High93 °F (Oct 8, 12:00 pm)100% (Oct 5, 6:00 am)29.92 "Hg (Oct 5, 6:00 am)
Low73 °F (Oct 14, 1:30 am)62% (Oct 9, 3:00 pm)29.70 "Hg (Oct 8, 4:00 pm)
Average82 °F86%29.81 "Hg
* Reported Oct 5 12:00 am — Oct 20 12:00 am, Cartagena. Weather by CustomWeather, © 2019

Note: Actual official high and low records may vary slightly from our data, if they occured in-between our weather recording intervals... More about our weather records

Advertising

Cartagena Weather History for the Previous 24 Hours

Scroll right to see more
 ConditionsComfort  
Time TempWeatherWind HumidityBarometerVisibility
12:00 am
Sun, Oct 20
81 °FPassing clouds.3 mph84%29.88 "HgN/A
11:00 pm
Sat, Oct 19
81 °FPassing clouds.5 mph84%29.89 "HgN/A
10:00 pm81 °FPassing clouds.2 mph84%29.90 "HgN/A
9:00 pm79 °FPassing clouds.2 mph89%29.89 "HgN/A
8:00 pm81 °FPassing clouds.3 mph84%29.88 "HgN/A
7:00 pm82 °FPassing clouds.3 mph79%29.84 "HgN/A
6:00 pm81 °FPassing clouds.8 mph84%29.82 "HgN/A
5:00 pm82 °FPartly sunny.8 mph79%29.81 "HgN/A
4:00 pm84 °FPartly sunny.9 mph74%29.80 "HgN/A
3:00 pm88 °FScattered clouds.9 mph70%29.79 "HgN/A
2:00 pm88 °FScattered clouds.6 mph70%29.81 "HgN/A
1:00 pm88 °FScattered clouds.7 mph62%29.84 "HgN/A
12:00 pm82 °FPartly sunny.8 mph79%29.88 "HgN/A
11:00 am81 °FPartly sunny.10 mph89%29.90 "HgN/A
10:00 am81 °FBroken clouds.6 mph84%29.91 "HgN/A
9:00 am79 °FBroken clouds.10 mph89%29.92 "HgN/A
8:18 am77 °FRain. Partly sunny.7 mph100%29.91 "HgN/A
8:00 am77 °FPartly sunny.7 mph94%29.90 "HgN/A
7:00 am77 °FBroken clouds.5 mph94%29.87 "HgN/A
6:00 am75 °FScattered clouds.5 mph94%29.86 "Hg6 mi
5:00 am75 °FPassing clouds.5 mph94%29.84 "Hg6 mi
4:00 am73 °FRain. Partly cloudy.7 mph100%29.84 "Hg5 mi
3:00 am73 °FThunderstorms. Partly cloudy.7 mph100%29.86 "Hg4 mi
2:00 am73 °FThunderstorms. Passing clouds.14 mph94%29.86 "Hg3 mi
Weather by CustomWeather, © 2019

See weather overview